Year,Month,Day,Hour,Minute,Value (Times are PST for temperature in C)
2014,09,11,00,00,15.80
2014,09,11,00,01,15.70
2014,09,11,00,02,15.70
2014,09,11,00,03,15.70
2014,09,11,00,04,15.60
2014,09,11,00,05,15.60
2014,09,11,00,06,15.60
2014,09,11,00,07,15.60
2014,09,11,00,08,15.60
2014,09,11,00,09,15.60
2014,09,11,00,10,15.60
2014,09,11,00,11,15.60
2014,09,11,00,12,15.60
2014,09,11,00,13,15.60
2014,09,11,00,14,15.60
2014,09,11,00,15,15.60
2014,09,11,00,16,15.60
2014,09,11,00,17,15.70
2014,09,11,00,18,15.60
2014,09,11,00,19,15.70
2014,09,11,00,20,15.70
2014,09,11,00,21,15.70
2014,09,11,00,22,15.70
2014,09,11,00,23,15.60
2014,09,11,00,24,15.60
2014,09,11,00,25,15.70
2014,09,11,00,26,15.70
2014,09,11,00,27,15.70
2014,09,11,00,28,15.70
2014,09,11,00,29,15.80
2014,09,11,00,30,15.80
2014,09,11,00,31,15.80
2014,09,11,00,32,15.80
2014,09,11,00,33,15.80
2014,09,11,00,34,15.80
2014,09,11,00,35,15.80
2014,09,11,00,36,15.80
2014,09,11,00,37,15.80
2014,09,11,00,38,15.80
2014,09,11,00,39,15.80
2014,09,11,00,40,15.80
2014,09,11,00,41,15.80
2014,09,11,00,42,15.80
2014,09,11,00,43,15.90
2014,09,11,00,44,15.90
2014,09,11,00,45,15.90
2014,09,11,00,46,15.80
2014,09,11,00,47,15.80
2014,09,11,00,48,15.80
2014,09,11,00,49,15.80
2014,09,11,00,50,15.80
2014,09,11,00,51,15.80
2014,09,11,00,52,15.80
2014,09,11,00,53,15.80
2014,09,11,00,54,15.80
2014,09,11,00,55,15.80
2014,09,11,00,56,15.80
2014,09,11,00,57,15.80
2014,09,11,00,58,15.70
2014,09,11,00,59,15.70
2014,09,11,01,00,15.70
2014,09,11,01,01,15.70
2014,09,11,01,02,15.60
2014,09,11,01,03,15.60
2014,09,11,01,04,15.60
2014,09,11,01,05,15.60
2014,09,11,01,06,15.60
2014,09,11,01,07,15.50
2014,09,11,01,08,15.50
2014,09,11,01,09,15.50
2014,09,11,01,10,15.50
2014,09,11,01,11,15.40
2014,09,11,01,12,15.40
2014,09,11,01,13,15.40
2014,09,11,01,14,15.40
2014,09,11,01,15,15.40
2014,09,11,01,16,15.40
2014,09,11,01,17,15.40
2014,09,11,01,18,15.40
2014,09,11,01,19,15.40
2014,09,11,01,20,15.40
2014,09,11,01,21,15.40
2014,09,11,01,22,15.40
2014,09,11,01,23,15.40
2014,09,11,01,24,15.40
2014,09,11,01,25,15.30
2014,09,11,01,26,15.30
2014,09,11,01,27,15.30
2014,09,11,01,28,15.30
2014,09,11,01,29,15.30
2014,09,11,01,30,15.30
2014,09,11,01,31,15.30
2014,09,11,01,32,15.30
2014,09,11,01,33,15.30
2014,09,11,01,34,15.30
2014,09,11,01,35,15.30
2014,09,11,01,36,15.30
2014,09,11,01,37,15.30
2014,09,11,01,38,15.30
2014,09,11,01,39,15.30
2014,09,11,01,40,15.30
2014,09,11,01,41,15.20
2014,09,11,01,42,15.20
2014,09,11,01,43,15.20
2014,09,11,01,44,15.20
2014,09,11,01,45,15.20
2014,09,11,01,46,15.20
2014,09,11,01,47,15.20
2014,09,11,01,48,15.20
2014,09,11,01,49,15.20
2014,09,11,01,50,15.20
2014,09,11,01,51,15.20
2014,09,11,01,52,15.20
2014,09,11,01,53,15.20
2014,09,11,01,54,15.20
2014,09,11,01,55,15.20
2014,09,11,01,56,15.20
2014,09,11,01,57,15.20
2014,09,11,01,58,15.20
2014,09,11,01,59,15.20
2014,09,11,02,00,15.20
2014,09,11,02,01,15.20
2014,09,11,02,02,15.20
2014,09,11,02,03,15.10
2014,09,11,02,04,15.10
2014,09,11,02,05,15.10
2014,09,11,02,06,15.10
2014,09,11,02,07,15.10
2014,09,11,02,08,15.10
2014,09,11,02,09,15.10
2014,09,11,02,10,15.10
2014,09,11,02,11,15.10
2014,09,11,02,12,15.10
2014,09,11,02,13,15.10
2014,09,11,02,14,15.10
2014,09,11,02,15,15.20
2014,09,11,02,16,15.20
2014,09,11,02,17,15.20
2014,09,11,02,18,15.20
2014,09,11,02,19,15.10
2014,09,11,02,20,15.10
2014,09,11,02,21,15.10
2014,09,11,02,22,15.10
2014,09,11,02,23,15.10
2014,09,11,02,24,15.10
2014,09,11,02,25,15.10
2014,09,11,02,26,15.00
2014,09,11,02,27,15.00
2014,09,11,02,28,15.00
2014,09,11,02,29,15.00
2014,09,11,02,30,15.00
2014,09,11,02,31,14.90
2014,09,11,02,32,14.90
2014,09,11,02,33,14.90
2014,09,11,02,34,14.90
2014,09,11,02,35,14.90
2014,09,11,02,36,14.90
2014,09,11,02,37,14.90
2014,09,11,02,38,14.90
2014,09,11,02,39,14.90
2014,09,11,02,40,14.90
2014,09,11,02,41,15.00
2014,09,11,02,42,15.00
2014,09,11,02,43,15.00
2014,09,11,02,44,14.90
2014,09,11,02,45,14.90
2014,09,11,02,46,14.90
2014,09,11,02,47,14.90
2014,09,11,02,48,14.90
2014,09,11,02,49,14.90
2014,09,11,02,50,14.90
2014,09,11,02,51,14.90
2014,09,11,02,52,14.90
2014,09,11,02,53,14.80
2014,09,11,02,54,14.80
2014,09,11,02,55,14.80
2014,09,11,02,56,14.80
2014,09,11,02,57,14.80
2014,09,11,02,58,14.80
2014,09,11,02,59,14.90
2014,09,11,03,00,14.90
2014,09,11,03,01,14.90
2014,09,11,03,02,14.90
2014,09,11,03,06,14.80
2014,09,11,03,07,14.80
2014,09,11,03,08,14.80
2014,09,11,03,09,14.80
2014,09,11,03,10,14.80
2014,09,11,03,11,14.80
2014,09,11,03,12,14.80
2014,09,11,03,13,14.80
2014,09,11,03,14,14.80
2014,09,11,03,15,14.80
2014,09,11,03,16,14.80
2014,09,11,03,17,14.80
2014,09,11,03,18,14.80
2014,09,11,03,19,14.90
2014,09,11,03,20,14.90
2014,09,11,03,21,14.90
2014,09,11,03,22,14.90
2014,09,11,03,23,14.90
2014,09,11,03,24,14.90
2014,09,11,03,25,14.90
2014,09,11,03,26,14.90
2014,09,11,03,27,14.90
2014,09,11,03,28,14.90
2014,09,11,03,29,14.80
2014,09,11,03,30,14.80
2014,09,11,03,31,14.80
2014,09,11,03,32,14.70
2014,09,11,03,33,14.60
2014,09,11,03,34,14.60
2014,09,11,03,35,14.60
2014,09,11,03,36,14.60
2014,09,11,03,37,14.60
2014,09,11,03,38,14.60
2014,09,11,03,39,14.60
2014,09,11,03,40,14.60
2014,09,11,03,41,14.60
2014,09,11,03,42,14.60
2014,09,11,03,43,14.60
2014,09,11,03,44,14.60
2014,09,11,03,45,14.60
2014,09,11,03,46,14.60
2014,09,11,03,47,14.60
2014,09,11,03,48,14.60
2014,09,11,03,49,14.60
2014,09,11,03,50,14.60
2014,09,11,03,51,14.60
2014,09,11,03,52,14.50
2014,09,11,03,53,14.50
2014,09,11,03,54,14.40
2014,09,11,03,55,14.30
2014,09,11,03,56,14.30
2014,09,11,03,57,14.20
2014,09,11,03,58,14.20
2014,09,11,03,59,14.20
2014,09,11,04,00,14.10
2014,09,11,04,01,14.00
2014,09,11,04,02,14.00
2014,09,11,04,03,14.00
2014,09,11,04,04,14.00
2014,09,11,04,05,14.10
2014,09,11,04,06,14.10
2014,09,11,04,07,14.10
2014,09,11,04,08,14.20
2014,09,11,04,09,14.20
2014,09,11,04,10,14.20
2014,09,11,04,11,14.20
2014,09,11,04,12,14.20
2014,09,11,04,13,14.20
2014,09,11,04,14,14.20
2014,09,11,04,15,14.30
2014,09,11,04,16,14.30
2014,09,11,04,17,14.30
2014,09,11,04,18,14.30
2014,09,11,04,19,14.30
2014,09,11,04,20,14.30
2014,09,11,04,21,14.30
2014,09,11,04,22,14.30
2014,09,11,04,23,14.30
2014,09,11,04,24,14.30
2014,09,11,04,25,14.30
2014,09,11,04,26,14.30
2014,09,11,04,27,14.30
2014,09,11,04,28,14.30
2014,09,11,04,29,14.30
2014,09,11,04,30,14.30
2014,09,11,04,31,14.30
2014,09,11,04,32,14.30
2014,09,11,04,33,14.30
2014,09,11,04,34,14.30
2014,09,11,04,35,14.20
2014,09,11,04,36,14.20
2014,09,11,04,37,14.20
2014,09,11,04,38,14.10
2014,09,11,04,39,14.10
2014,09,11,04,40,14.10
2014,09,11,04,41,14.00
2014,09,11,04,42,14.00
2014,09,11,04,43,14.00
2014,09,11,04,44,14.00
2014,09,11,04,45,13.90
2014,09,11,04,46,13.90
2014,09,11,04,47,13.90
2014,09,11,04,48,13.90
2014,09,11,04,49,13.90
2014,09,11,04,50,13.90
2014,09,11,04,51,13.80
2014,09,11,04,52,13.80
2014,09,11,04,53,13.80
2014,09,11,04,54,13.70
2014,09,11,04,55,13.70
2014,09,11,04,56,13.70
2014,09,11,04,57,13.70
2014,09,11,04,58,13.70
2014,09,11,04,59,13.70
2014,09,11,05,00,13.70
2014,09,11,05,01,13.70
2014,09,11,05,02,13.70
2014,09,11,05,03,13.70
2014,09,11,05,04,13.70
2014,09,11,05,05,13.70
2014,09,11,05,06,13.70
2014,09,11,05,07,13.70
2014,09,11,05,08,13.70
2014,09,11,05,09,13.70
2014,09,11,05,10,13.70
2014,09,11,05,11,13.70
2014,09,11,05,12,13.70
2014,09,11,05,13,13.70
2014,09,11,05,14,13.70
2014,09,11,05,15,13.80
2014,09,11,05,16,13.80
2014,09,11,05,17,13.80
2014,09,11,05,18,13.80
2014,09,11,05,19,13.80
2014,09,11,05,20,13.80
2014,09,11,05,21,13.80
2014,09,11,05,22,13.80
2014,09,11,05,23,13.90
2014,09,11,05,24,13.90
2014,09,11,05,25,13.90
2014,09,11,05,26,13.90
2014,09,11,05,27,14.00
2014,09,11,05,28,14.00
2014,09,11,05,29,14.00
2014,09,11,05,30,14.10
2014,09,11,05,31,14.10
2014,09,11,05,32,14.20
2014,09,11,05,33,14.20
2014,09,11,05,34,14.20
2014,09,11,05,35,14.20
2014,09,11,05,36,14.20
2014,09,11,05,37,14.20
2014,09,11,05,38,14.20
2014,09,11,05,39,14.20
2014,09,11,05,40,14.10
2014,09,11,05,41,14.10
2014,09,11,05,42,14.10
2014,09,11,05,43,14.10
2014,09,11,05,44,14.10
2014,09,11,05,45,14.10
2014,09,11,05,46,14.10
2014,09,11,05,47,14.10
2014,09,11,05,48,14.10
2014,09,11,05,49,14.10
2014,09,11,05,50,14.10
2014,09,11,05,51,14.10
2014,09,11,05,52,14.00
2014,09,11,05,53,14.00
2014,09,11,05,54,13.90
2014,09,11,05,55,13.90
2014,09,11,05,56,13.90
2014,09,11,05,57,13.90
2014,09,11,05,58,13.90
2014,09,11,05,59,13.90
2014,09,11,06,00,13.90
2014,09,11,06,01,13.90
2014,09,11,06,02,13.90
2014,09,11,06,03,13.90
2014,09,11,06,04,13.90
2014,09,11,06,05,13.90
2014,09,11,06,06,13.90
2014,09,11,06,07,13.90
2014,09,11,06,08,13.80
2014,09,11,06,09,13.80
2014,09,11,06,10,13.80
2014,09,11,06,11,13.80
2014,09,11,06,12,13.80
2014,09,11,06,13,13.70
2014,09,11,06,14,13.70
2014,09,11,06,15,13.70
2014,09,11,06,16,13.70
2014,09,11,06,17,13.70
2014,09,11,06,18,13.70
2014,09,11,06,19,13.70
2014,09,11,06,20,13.60
2014,09,11,06,21,13.60
2014,09,11,06,22,13.60
2014,09,11,06,23,13.60
2014,09,11,06,24,13.60
2014,09,11,06,25,13.70
2014,09,11,06,26,13.70
2014,09,11,06,27,13.70
2014,09,11,06,28,13.70
2014,09,11,06,29,13.70
2014,09,11,06,30,13.70
2014,09,11,06,31,13.70
2014,09,11,06,32,13.70
2014,09,11,06,33,13.70
2014,09,11,06,34,13.70
2014,09,11,06,35,13.70
2014,09,11,06,36,13.70
2014,09,11,06,37,13.60
2014,09,11,06,38,13.60
2014,09,11,06,39,13.60
2014,09,11,06,40,13.60
2014,09,11,06,41,13.60
2014,09,11,06,42,13.60
2014,09,11,06,43,13.60
2014,09,11,06,44,13.60
2014,09,11,06,45,13.60
2014,09,11,06,46,13.60
2014,09,11,06,47,13.60
2014,09,11,06,48,13.60
2014,09,11,06,49,13.60
2014,09,11,06,50,13.60
2014,09,11,06,51,13.50
2014,09,11,06,52,13.50
2014,09,11,06,53,13.50
2014,09,11,06,54,13.40
2014,09,11,06,55,13.40
2014,09,11,06,56,13.40
2014,09,11,06,57,13.30
2014,09,11,06,58,13.30
2014,09,11,06,59,13.30
2014,09,11,07,00,13.30
2014,09,11,07,01,13.30
2014,09,11,07,02,13.30
2014,09,11,07,03,13.30
2014,09,11,07,04,13.30
2014,09,11,07,05,13.30
2014,09,11,07,06,13.30
2014,09,11,07,07,13.30
2014,09,11,07,08,13.40
2014,09,11,07,09,13.40
2014,09,11,07,10,13.40
2014,09,11,07,11,13.40
2014,09,11,07,12,13.40
2014,09,11,07,13,13.40
2014,09,11,07,14,13.40
2014,09,11,07,15,13.40
2014,09,11,07,16,13.50
2014,09,11,07,17,13.50
2014,09,11,07,18,13.50
2014,09,11,07,19,13.50
2014,09,11,07,20,13.60
2014,09,11,07,21,13.60
2014,09,11,07,22,13.60
2014,09,11,07,23,13.60
2014,09,11,07,24,13.60
2014,09,11,07,25,13.60
2014,09,11,07,26,13.60
2014,09,11,07,27,13.60
2014,09,11,07,28,13.70
2014,09,11,07,29,13.70
2014,09,11,07,30,13.70
2014,09,11,07,31,13.70
2014,09,11,07,32,13.70
2014,09,11,07,33,13.70
2014,09,11,07,34,13.70
2014,09,11,07,35,13.80
2014,09,11,07,36,13.80
2014,09,11,07,37,13.80
2014,09,11,07,38,13.80
2014,09,11,07,39,13.80
2014,09,11,07,40,13.90
2014,09,11,07,41,13.90
2014,09,11,07,42,13.90
2014,09,11,07,43,13.90
2014,09,11,07,44,13.90
2014,09,11,07,45,13.90
2014,09,11,07,46,14.00
2014,09,11,07,47,14.00
2014,09,11,07,48,14.00
2014,09,11,07,49,14.00
2014,09,11,07,50,14.00
2014,09,11,07,51,14.00
2014,09,11,07,52,14.00
2014,09,11,07,53,14.00
2014,09,11,07,54,14.00
2014,09,11,07,55,14.00
2014,09,11,07,56,14.00
2014,09,11,07,57,14.00
2014,09,11,07,58,14.00
2014,09,11,07,59,14.00
2014,09,11,08,00,14.00
2014,09,11,08,01,14.00
2014,09,11,08,02,14.00
2014,09,11,08,03,14.00
2014,09,11,08,04,14.00
2014,09,11,08,05,14.00
2014,09,11,08,06,14.10
2014,09,11,08,07,14.10
2014,09,11,08,08,14.10
2014,09,11,08,09,14.10
2014,09,11,08,10,14.20
2014,09,11,08,11,14.20
2014,09,11,08,12,14.20
2014,09,11,08,13,14.20
2014,09,11,08,14,14.20
2014,09,11,08,15,14.20
2014,09,11,08,16,14.30
2014,09,11,08,17,14.30
2014,09,11,08,18,14.30
2014,09,11,08,19,14.30
2014,09,11,08,20,14.30
2014,09,11,08,21,14.30
2014,09,11,08,22,14.30
2014,09,11,08,23,14.30
2014,09,11,08,24,14.30
2014,09,11,08,25,14.30
2014,09,11,08,26,14.30
2014,09,11,08,27,14.40
2014,09,11,08,28,14.40
2014,09,11,08,29,14.40
2014,09,11,08,30,14.40
2014,09,11,08,31,14.40
2014,09,11,08,32,14.50
2014,09,11,08,33,14.50
2014,09,11,08,34,14.50
2014,09,11,08,35,14.50
2014,09,11,08,36,14.50
2014,09,11,08,37,14.50
2014,09,11,08,38,14.50
2014,09,11,08,39,14.60
2014,09,11,08,40,14.60
2014,09,11,08,41,14.60
2014,09,11,08,42,14.60
2014,09,11,08,43,14.60
2014,09,11,08,44,14.60
2014,09,11,08,45,14.60
2014,09,11,08,46,14.70
2014,09,11,08,47,14.70
2014,09,11,08,48,14.70
2014,09,11,08,49,14.70
2014,09,11,08,50,14.70
2014,09,11,08,51,14.70
2014,09,11,08,52,14.60
2014,09,11,08,53,14.60
2014,09,11,08,54,14.60
2014,09,11,08,55,14.60
2014,09,11,08,56,14.60
2014,09,11,08,57,14.60
2014,09,11,08,58,14.60
2014,09,11,08,59,14.60
2014,09,11,09,00,14.60
2014,09,11,09,01,14.60
2014,09,11,09,02,14.60
2014,09,11,09,03,14.60
2014,09,11,09,04,14.60
2014,09,11,09,05,14.60
2014,09,11,09,06,14.60
2014,09,11,09,07,14.60
2014,09,11,09,08,14.70
2014,09,11,09,09,14.70
2014,09,11,09,10,14.70
2014,09,11,09,11,14.70
2014,09,11,09,12,14.70
2014,09,11,09,13,14.70
2014,09,11,09,14,14.70
2014,09,11,09,15,14.70
2014,09,11,09,16,14.70
2014,09,11,09,17,14.70
2014,09,11,09,18,14.70
2014,09,11,09,19,14.80
2014,09,11,09,20,14.80
2014,09,11,09,21,14.80
2014,09,11,09,22,14.80
2014,09,11,09,23,14.90
2014,09,11,09,24,14.90
2014,09,11,09,25,15.00
2014,09,11,09,26,15.10
2014,09,11,09,27,15.10
2014,09,11,09,28,15.20
2014,09,11,09,29,15.20
2014,09,11,09,30,15.30
2014,09,11,09,31,15.30
2014,09,11,09,32,15.40
2014,09,11,09,33,15.40
2014,09,11,09,34,15.40
2014,09,11,09,35,15.50
2014,09,11,09,36,15.50
2014,09,11,09,37,15.50
2014,09,11,09,38,15.50
2014,09,11,09,39,15.40
2014,09,11,09,40,15.40
2014,09,11,09,41,15.30
2014,09,11,09,42,15.30
2014,09,11,09,43,15.30
2014,09,11,09,44,15.30
2014,09,11,09,45,15.40
2014,09,11,09,46,15.40
2014,09,11,09,47,15.40
2014,09,11,09,48,15.50
2014,09,11,09,49,15.50
2014,09,11,09,50,15.60
2014,09,11,09,51,15.70
2014,09,11,09,52,15.70
2014,09,11,09,53,15.80
2014,09,11,09,54,15.70
2014,09,11,09,55,15.70
2014,09,11,09,56,15.70
2014,09,11,09,57,15.60
2014,09,11,09,58,15.60
2014,09,11,09,59,15.50
2014,09,11,10,00,15.50
2014,09,11,10,01,15.50
2014,09,11,10,02,15.40
2014,09,11,10,03,15.40
2014,09,11,10,04,15.40
2014,09,11,10,05,15.40
2014,09,11,10,06,15.40
2014,09,11,10,07,15.40
2014,09,11,10,08,15.30
2014,09,11,10,09,15.40
2014,09,11,10,10,15.40
2014,09,11,10,11,15.40
2014,09,11,10,12,15.40
2014,09,11,10,13,15.40
2014,09,11,10,14,15.40
2014,09,11,10,15,15.40
2014,09,11,10,16,15.40
2014,09,11,10,17,15.50
2014,09,11,10,18,15.50
2014,09,11,10,19,15.50
2014,09,11,10,20,15.50
2014,09,11,10,21,15.50
2014,09,11,10,22,15.60
2014,09,11,10,23,15.70
2014,09,11,10,24,15.70
2014,09,11,10,25,15.70
2014,09,11,10,26,15.80
2014,09,11,10,27,15.80
2014,09,11,10,28,15.80
2014,09,11,10,29,15.80
2014,09,11,10,30,15.90
2014,09,11,10,31,15.90
2014,09,11,10,32,15.90
2014,09,11,10,33,15.90
2014,09,11,10,34,16.00
2014,09,11,10,35,16.00
2014,09,11,10,36,16.10
2014,09,11,10,37,16.20
2014,09,11,10,38,16.20
2014,09,11,10,39,16.30
2014,09,11,10,40,16.40
2014,09,11,10,41,16.40
2014,09,11,10,42,16.40
2014,09,11,10,43,16.50
2014,09,11,10,44,16.60
2014,09,11,10,45,16.60
2014,09,11,10,46,16.60
2014,09,11,10,47,16.60
2014,09,11,10,48,16.70
2014,09,11,10,49,16.70
2014,09,11,10,50,16.80
2014,09,11,10,51,16.80
2014,09,11,10,52,16.80
2014,09,11,10,53,16.90
2014,09,11,10,54,17.00
2014,09,11,10,55,17.00
2014,09,11,10,56,17.10
2014,09,11,10,57,17.10
2014,09,11,10,58,17.10
2014,09,11,10,59,17.10
2014,09,11,11,00,17.20
2014,09,11,11,01,17.20
2014,09,11,11,02,17.20
2014,09,11,11,03,17.20
2014,09,11,11,04,17.30
2014,09,11,11,05,17.30
2014,09,11,11,06,17.30
2014,09,11,11,07,17.20
2014,09,11,11,08,17.20
2014,09,11,11,09,17.20
2014,09,11,11,10,17.30
2014,09,11,11,11,17.30
2014,09,11,11,12,17.20
2014,09,11,11,13,17.20
2014,09,11,11,14,17.20
2014,09,11,11,15,17.30
2014,09,11,11,16,17.30
2014,09,11,11,17,17.30
2014,09,11,11,18,17.30
2014,09,11,11,19,17.30
2014,09,11,11,20,17.30
2014,09,11,11,21,17.20
2014,09,11,11,22,17.20
2014,09,11,11,23,17.20
2014,09,11,11,24,17.10
2014,09,11,11,25,17.10
2014,09,11,11,26,17.10
2014,09,11,11,27,17.10
2014,09,11,11,28,17.10
2014,09,11,11,29,17.10
2014,09,11,11,30,17.10
2014,09,11,11,31,17.10
2014,09,11,11,32,17.10
2014,09,11,11,33,17.20
2014,09,11,11,34,17.20
2014,09,11,11,35,17.20
2014,09,11,11,36,17.20
2014,09,11,11,37,17.20
2014,09,11,11,38,17.20
2014,09,11,11,39,17.30
2014,09,11,11,40,17.40
2014,09,11,11,41,17.40
2014,09,11,11,42,17.50
2014,09,11,11,43,17.60
2014,09,11,11,44,17.70
2014,09,11,11,45,17.70
2014,09,11,11,46,17.80
2014,09,11,11,47,17.80
2014,09,11,11,48,17.80
2014,09,11,11,49,17.70
2014,09,11,11,50,17.70
2014,09,11,11,51,17.70
2014,09,11,11,52,17.70
2014,09,11,11,53,17.70
2014,09,11,11,54,17.70
2014,09,11,11,55,17.70
2014,09,11,11,56,17.70
2014,09,11,11,57,17.80
2014,09,11,11,58,17.80
2014,09,11,11,59,17.80
2014,09,11,12,00,17.80
2014,09,11,12,01,17.90
2014,09,11,12,02,17.90
2014,09,11,12,03,17.90
2014,09,11,12,04,17.90
2014,09,11,12,05,17.90
2014,09,11,12,06,18.00
2014,09,11,12,07,18.00
2014,09,11,12,08,18.10
2014,09,11,12,09,18.20
2014,09,11,12,10,18.20
2014,09,11,12,11,18.20
2014,09,11,12,12,18.20
2014,09,11,12,13,18.20
2014,09,11,12,14,18.20
2014,09,11,12,15,18.20
2014,09,11,12,16,18.20
2014,09,11,12,17,18.20
2014,09,11,12,18,18.20
2014,09,11,12,19,18.20
2014,09,11,12,20,18.20
2014,09,11,12,21,18.20
2014,09,11,12,22,18.10
2014,09,11,12,23,18.10
2014,09,11,12,24,18.10
2014,09,11,12,25,18.20
2014,09,11,12,26,18.20
2014,09,11,12,27,18.30
2014,09,11,12,28,18.30
2014,09,11,12,29,18.40
2014,09,11,12,30,18.50
2014,09,11,12,31,18.60
2014,09,11,12,32,18.60
2014,09,11,12,33,18.60
2014,09,11,12,34,18.60
2014,09,11,12,35,18.60
2014,09,11,12,36,18.60
2014,09,11,12,37,18.60
2014,09,11,12,38,18.60
2014,09,11,12,39,18.60
2014,09,11,12,40,18.70
2014,09,11,12,41,18.70
2014,09,11,12,42,18.70
2014,09,11,12,43,18.70
2014,09,11,12,44,18.70
2014,09,11,12,45,18.70
2014,09,11,12,46,18.70
2014,09,11,12,47,18.70
2014,09,11,12,48,18.80
2014,09,11,12,49,18.80
2014,09,11,12,50,18.90
2014,09,11,12,51,18.90
2014,09,11,12,52,18.80
2014,09,11,12,53,18.80
2014,09,11,12,54,18.70
2014,09,11,12,55,18.70
2014,09,11,12,56,18.70
2014,09,11,12,57,18.70
2014,09,11,12,58,18.70
2014,09,11,12,59,18.60
2014,09,11,13,00,18.60
2014,09,11,13,01,18.50
2014,09,11,13,02,18.50
2014,09,11,13,03,18.50
2014,09,11,13,04,18.50
2014,09,11,13,05,18.50
2014,09,11,13,06,18.60
2014,09,11,13,07,18.70
2014,09,11,13,08,18.70
2014,09,11,13,09,18.70
2014,09,11,13,10,18.70
2014,09,11,13,11,18.70
2014,09,11,13,12,18.70
2014,09,11,13,13,18.70
2014,09,11,13,14,18.70
2014,09,11,13,15,18.70
2014,09,11,13,16,18.70
2014,09,11,13,17,18.70
2014,09,11,13,18,18.70
2014,09,11,13,19,18.70
2014,09,11,13,20,18.70
2014,09,11,13,21,18.80
2014,09,11,13,22,18.80
2014,09,11,13,23,18.80
2014,09,11,13,24,18.80
2014,09,11,13,25,18.80
2014,09,11,13,26,18.90
2014,09,11,13,27,18.90
2014,09,11,13,28,19.00
2014,09,11,13,29,19.00
2014,09,11,13,30,19.10
2014,09,11,13,31,19.10
2014,09,11,13,32,19.20
2014,09,11,13,33,19.10
2014,09,11,13,34,19.10
2014,09,11,13,35,19.10
2014,09,11,13,36,19.20
2014,09,11,13,37,19.20
2014,09,11,13,38,19.20
2014,09,11,13,39,19.30
2014,09,11,13,40,19.30
2014,09,11,13,41,19.30
2014,09,11,13,42,19.30
2014,09,11,13,43,19.30
2014,09,11,13,44,19.40
2014,09,11,13,45,19.40
2014,09,11,13,46,19.50
2014,09,11,13,47,19.50
2014,09,11,13,48,19.50
2014,09,11,13,49,19.50
2014,09,11,13,50,19.40
2014,09,11,13,51,19.40
2014,09,11,13,52,19.40
2014,09,11,13,53,19.40
2014,09,11,13,54,19.30
2014,09,11,13,55,19.30
2014,09,11,13,56,19.30
2014,09,11,13,57,19.40
2014,09,11,13,58,19.40
2014,09,11,13,59,19.60
2014,09,11,14,00,19.70
2014,09,11,14,01,19.80
2014,09,11,14,02,19.90
2014,09,11,14,03,20.00
2014,09,11,14,04,20.10
2014,09,11,14,05,20.10
2014,09,11,14,06,20.10
2014,09,11,14,07,20.20
2014,09,11,14,08,20.10
2014,09,11,14,09,20.10
2014,09,11,14,10,20.10
2014,09,11,14,11,20.20
2014,09,11,14,12,20.20
2014,09,11,14,13,20.20
2014,09,11,14,14,20.20
2014,09,11,14,15,20.20
2014,09,11,14,16,20.20
2014,09,11,14,17,20.10
2014,09,11,14,18,20.10
2014,09,11,14,19,20.00
2014,09,11,14,20,20.00
2014,09,11,14,21,20.10
2014,09,11,14,22,20.10
2014,09,11,14,23,20.20
2014,09,11,14,24,20.20
2014,09,11,14,25,20.30
2014,09,11,14,26,20.30
2014,09,11,14,27,20.30
2014,09,11,14,28,20.30
2014,09,11,14,29,20.20
2014,09,11,14,30,20.20
2014,09,11,14,31,20.10
2014,09,11,14,32,20.10
2014,09,11,14,33,20.20
2014,09,11,14,34,20.20
2014,09,11,14,35,20.20
2014,09,11,14,36,20.20
2014,09,11,14,37,20.30
2014,09,11,14,38,20.30
2014,09,11,14,39,20.30
2014,09,11,14,40,20.20
2014,09,11,14,41,20.20
2014,09,11,14,42,20.10
2014,09,11,14,43,20.10
2014,09,11,14,44,20.00
2014,09,11,14,45,20.00
2014,09,11,14,46,20.00
2014,09,11,14,47,20.00
2014,09,11,14,48,19.90
2014,09,11,14,49,19.90
2014,09,11,14,50,20.00
2014,09,11,14,51,20.00
2014,09,11,14,52,20.00
2014,09,11,14,53,20.00
2014,09,11,14,54,20.00
2014,09,11,14,55,20.00
2014,09,11,14,56,20.10
2014,09,11,14,57,20.10
2014,09,11,14,58,20.20
2014,09,11,14,59,20.10
2014,09,11,15,00,20.00
2014,09,11,15,01,20.00
2014,09,11,15,02,19.90
2014,09,11,15,03,19.90
2014,09,11,15,04,19.90
2014,09,11,15,05,20.00
2014,09,11,15,06,19.90
2014,09,11,15,07,19.90
2014,09,11,15,08,19.90
2014,09,11,15,09,19.90
2014,09,11,15,10,19.90
2014,09,11,15,11,19.90
2014,09,11,15,12,19.90
2014,09,11,15,13,19.90
2014,09,11,15,14,19.90
2014,09,11,15,15,19.90
2014,09,11,15,16,19.90
2014,09,11,15,17,19.90
2014,09,11,15,18,20.00
2014,09,11,15,19,20.00
2014,09,11,15,20,20.10
2014,09,11,15,21,20.20
2014,09,11,15,22,20.30
2014,09,11,15,23,20.30
2014,09,11,15,24,20.40
2014,09,11,15,25,20.40
2014,09,11,15,26,20.40
2014,09,11,15,27,20.30
2014,09,11,15,28,20.10
2014,09,11,15,29,20.10
2014,09,11,15,30,20.00
2014,09,11,15,31,20.00
2014,09,11,15,32,19.90
2014,09,11,15,33,20.00
2014,09,11,15,34,19.90
2014,09,11,15,35,19.90
2014,09,11,15,36,19.90
2014,09,11,15,37,20.00
2014,09,11,15,38,20.00
2014,09,11,15,39,20.10
2014,09,11,15,40,20.10
2014,09,11,15,41,20.20
2014,09,11,15,42,20.20
2014,09,11,15,43,20.20
2014,09,11,15,44,20.30
2014,09,11,15,45,20.40
2014,09,11,15,46,20.40
2014,09,11,15,47,20.50
2014,09,11,15,48,20.50
2014,09,11,15,49,20.50
2014,09,11,15,50,20.60
2014,09,11,15,51,20.60
2014,09,11,15,52,20.70
2014,09,11,15,53,20.80
2014,09,11,15,54,20.80
2014,09,11,15,55,20.80
2014,09,11,15,56,20.70
2014,09,11,15,57,20.70
2014,09,11,15,58,20.60
2014,09,11,15,59,20.60
2014,09,11,16,00,20.50
2014,09,11,16,01,20.40
2014,09,11,16,02,20.30
2014,09,11,16,03,20.30
2014,09,11,16,04,20.30
2014,09,11,16,05,20.30
2014,09,11,16,06,20.20
2014,09,11,16,07,20.20
2014,09,11,16,08,20.10
2014,09,11,16,09,20.10
2014,09,11,16,10,20.20
2014,09,11,16,11,20.20
2014,09,11,16,12,20.30
2014,09,11,16,13,20.40
2014,09,11,16,14,20.40
2014,09,11,16,15,20.40
2014,09,11,16,16,20.40
2014,09,11,16,17,20.40
2014,09,11,16,18,20.40
2014,09,11,16,19,20.50
2014,09,11,16,20,20.60
2014,09,11,16,21,20.60
2014,09,11,16,22,20.60
2014,09,11,16,23,20.60
2014,09,11,16,24,20.60
2014,09,11,16,25,20.50
2014,09,11,16,26,20.40
2014,09,11,16,27,20.40
2014,09,11,16,28,20.40
2014,09,11,16,29,20.50
2014,09,11,16,30,20.50
2014,09,11,16,31,20.50
2014,09,11,16,32,20.50
2014,09,11,16,33,20.40
2014,09,11,16,34,20.40
2014,09,11,16,35,20.50
2014,09,11,16,36,20.50
2014,09,11,16,37,20.50
2014,09,11,16,38,20.50
2014,09,11,16,39,20.60
2014,09,11,16,40,20.60
2014,09,11,16,41,20.60
2014,09,11,16,42,20.70
2014,09,11,16,43,20.70
2014,09,11,16,44,20.80
2014,09,11,16,45,20.80
2014,09,11,16,46,20.90
2014,09,11,16,47,20.90
2014,09,11,16,48,20.80
2014,09,11,16,49,20.80
2014,09,11,16,50,20.80
2014,09,11,16,51,20.70
2014,09,11,16,52,20.60
2014,09,11,16,53,20.60
2014,09,11,16,54,20.60
2014,09,11,16,55,20.60
2014,09,11,16,56,20.60
2014,09,11,16,57,20.50
2014,09,11,16,58,20.40
2014,09,11,16,59,20.40
2014,09,11,17,00,20.40
2014,09,11,17,01,20.30
2014,09,11,17,02,20.30
2014,09,11,17,03,20.30
2014,09,11,17,04,20.30
2014,09,11,17,05,20.20
2014,09,11,17,06,20.20
2014,09,11,17,07,20.10
2014,09,11,17,08,20.10
2014,09,11,17,09,20.20
2014,09,11,17,10,20.20
2014,09,11,17,11,20.30
2014,09,11,17,12,20.30
2014,09,11,17,13,20.40
2014,09,11,17,14,20.40
2014,09,11,17,15,20.40
2014,09,11,17,16,20.40
2014,09,11,17,17,20.40
2014,09,11,17,18,20.40
2014,09,11,17,19,20.40
2014,09,11,17,20,20.40
2014,09,11,17,21,20.50
2014,09,11,17,22,20.50